Regional Weather Roundup
Issued by NWS

Home | Current Version | Previous Version | Graphics & Text | Print | Product List | Glossary On
Versions: 1 2 3 4 5 6 7 8 9 10 11 12 13 14 15 16 17 18 19 20 21 22 23 24 25 26 27 28 29 30 31 32 33 34 35 36 37 38 39 40 41 42 43 44 45 46 47 48 49 50
000
ASUS45 KABQ 252310
RWRNM
WEATHER ROUNDUP FOR NEW MEXICO
NATIONAL WEATHER SERVICE ALBUQUERQUE NM
400 PM MST THU DEC 25 2014

NOTE: "FAIR" MEANS FEW OR NO CLOUDS BELOW 12,000 FEET AGL WITH NO
       SIGNIFICANT WEATHER OR OBSTRUCTIONS TO VISION.

      THIS PRODUCT IS RELEASED AS TWO VERSIONS.  ONE VERSION NEAR
      THE TOP OF THE HOUR CONTAINING PRELIMINARY DATA FROM ALBUQUERQUE
      AND OTHER STATIONS.  A FINAL VERSION WITH ADDITIONAL DATA IS
      ISSUED ABOUT 10 MINUTES AFTER THE HOUR.

NMZ501-503-504-510>518-260000-
NORTHWEST PLATEAU/NORTHCENTRAL MOUNTAINS

CITY           SKY/WX    TMP DP  RH WIND       PRES   REMARKS
FARMINGTON     CLOUDY    39  21  48 W10       29.60R WCI  32
LOS ALAMOS     CLOUDY    37  23  59 SW5       29.64S WCI  33
SANTA FE       MOCLDY    42  18  37 CALM      29.62S
TAOS           CLOUDY    34  19  55 N5        29.64F WCI  30
ANGEL FIRE     LGT SNOW  28  21  76 W9G17     29.63S WCI  19

$$
NMZ402-403-502-505>509-260000-
WESTCENTRAL MOUNTAINS/SOUTHWEST MOUNTAINS

CITY           SKY/WX    TMP DP  RH WIND       PRES   REMARKS
GALLUP         LGT SNOW  30  27  88 SW21      29.64S FOG     WCI  17
GRANTS         FLURRIES  38  24  59 W12G26    29.66R WCI  30
SILVER CITY    SUNNY     57  14  18 W28G40    29.69S

$$
NMZ407-409-411-412-260000-
SOUTHERN DESERTS

CITY           SKY/WX    TMP DP  RH WIND       PRES   REMARKS
LORDSBURG      FAIR      61  18  18 SW28G36   29.65F
DEMING         SUNNY     62  17  17 W24G38    29.66S
LAS CRUCES     CLOUDY    65  15  14 SW31      29.67F
HOLLOMAN AFB   MOSUNNY   61  11  14 S16       29.65F
ALAMOGORDO     MOSUNNY   61  10  13 S21G29    29.68F
T OR C         SUNNY     60  15  17 SW17G24   29.61S

$$
NMZ519>523-260000-
CENTRAL VALLEYS/CENTRAL HIGHLANDS

CITY           SKY/WX    TMP DP  RH WIND       PRES   REMARKS
ALBUQUERQUE    MOCLDY    49  15  25 NW7       29.60F
DOUBLE EAGLE   PTCLDY    48  18  29 SW6       29.62F
MORIARTY ARPT  FAIR      47  11  23 S20       29.62S
CLINES CORNERS PTCLDY    43  11  27 SW24G32   29.61S
BELEN          FAIR      50  17  26 W8        29.59S
SOCORRO        FAIR      58  12  16 SW30G41   29.58R

$$
NMZ524>526-539-540-260000-
SOUTHCENTRAL MOUNTAINS

CITY           SKY/WX    TMP DP  RH WIND       PRES   REMARKS
RUIDOSO        CLEAR     46   5  18 SW37G48   29.67S

$$
NMZ527>531-260000-
NORTHEAST HIGHLANDS/NORTHEAST PLAINS

CITY           SKY/WX    TMP DP  RH WIND       PRES   REMARKS
LAS VEGAS      PTCLDY    42  17  36 SW16      29.61R
RATON          PTCLDY    44  19  36 SW23G35   29.56S
CLAYTON        CLEAR     52  16  24 S22       29.59R

$$
NMZ532>537-260000-
EASTCENTRAL PLAINS

CITY           SKY/WX    TMP DP  RH WIND       PRES   REMARKS
TUCUMCARI      PTCLDY    57  13  17 SW10      29.60S
CANNON AFB     HAZE      49  17  28 S6        29.66F VSB 1/2
CLOVIS AIRPORT CLOUDY    46  21  36 S7        29.67S

$$
NMZ028-029-538-260000-
SOUTHEAST PLAINS

CITY           SKY/WX    TMP DP  RH WIND       PRES   REMARKS
ROSWELL        PTCLDY    65   8  10 S23G38    29.63R
ARTESIA        MOCLDY    64  12  13 SW15G22   29.67S
CARLSBAD       MOCLDY    64  16  15 S18       29.67S
HOBBS          CLEAR     55  23  28 S10       29.72S


$$


USA.gov is the U.S. government's official web portal to all federal, state and local government web resources and services.